Weather Roundup
Issued by NWS Chicago, IL

Home | Current Version | Previous Version | Text Only | Print | Product List | Glossary Off
Versions: 1 2 3 4 5 6 7 8 9 10 11 12 13 14 15 16 17 18 19 20 21 22 23 24 25 26 27 28 29 30 31 32 33 34 35 36 37 38 39 40 41 42 43 44 45 46 47 48 49 50

000
NZUS59 KLOT 280404
HRRLOT

CHICAGO AREA WEATHER ROUNDUP
NATIONAL WEATHER SERVICE CHICAGO/ROMEOVILLE IL
1100 PM CDT SAT MAY 27 2017

NOTE: "FAIR" INDICATES FEW OR NO CLOUDS BELOW 12,000 FEET WITH NO
SIGNIFICANT WEATHER AND/OR OBSTRUCTIONS TO VISIBILITY.

* THESE STATIONS ARE NOT UNDER NWS QUALITY CONTROL. THEY ALSO MAY NOT
  REPORT WEATHER SUCH AS PRECIPITATION OR FOG.

ILZ005-006-012>014-019>023-280500-
NORTHEAST ILLINOIS

CITY           SKY/WX    TMP DP  RH WIND       PRES   REMARKS
OHARE          CLOUDY    64  53  67 E6        29.84S
MIDWAY         CLOUDY    62  52  69 E3        29.84F
AURORA         CLOUDY    67  56  67 E6        29.84F
LANSING*       PTCLDY    60  56  88 CALM      29.85F
JOLIET*        CLOUDY    66  58  77 CALM      29.85R
WAUKEGAN       MOCLDY    59  53  80 CALM      29.85R
DUPAGE AIRPORT CLOUDY    65  57  75 E3        29.84S
WHEELING       CLOUDY    61  55  81 SE3       29.85F
KANKAKEE*      CLOUDY    64  62  91 CALM      29.85R
MORRIS*        CLOUDY    65  60  81 CALM      29.83R
LEWIS AIRPORT* CLOUDY    62  58  89 CALM      29.84S
NORTHERLY ISL    N/A     56  50  80 CALM        N/A
$$

WIZ051-052-058>065-066-070>072-280500-
SOUTHEAST WISCONSIN

CITY           SKY/WX    TMP DP  RH WIND       PRES   REMARKS
MILWAUKEE      CLOUDY    65  54  67 SW3       29.85R
KENOSHA*       CLOUDY    62  53  72 S3        29.85S
RACINE*        MOCLDY    61  51  70 SW3       29.86S
$$

INZ001>003-010>013-019-020-280500-
NORTHWEST INDIANA

CITY           SKY/WX    TMP DP  RH WIND       PRES   REMARKS
GARY*          PTCLDY    60  56  87 CALM      29.84F
MICHIGAN CITY* NOT AVBL
RENSSELAER*    NOT AVBL
VALPARAISO     CLOUDY    61  59  93 NE3       29.85S
$$

LMZ740>746-280500-
SOUTHERN LAKE MICHIGAN

STATION/POSITION TIME  SKY/WX   TEMP WIND        PRES    VSBY
                                AIR  DIR/SP/G
                 (UTC)          (F)  (DEG/KT/KT) (MB)    (MI)
HARRISON CRIB    0340            56  130/  5/  6   N/A
BURNHAM HARBOR   0400            56   CALM  /  2   N/A
CALUMET HARBOR   0330            58   60/  3/  4 1010.3F
BURNS HARBOR     0340            60   80/  3/  5 1011.2R
MICHIGAN CITY    0340            58   60/  1/  2   N/A
$$

ABBREVIATIONS USED IN REMARKS
   TC - TEMPERATURE IN CELSIUS
  WCI - WIND CHILL INDEX
   HX - HEAT INDEX
  VSB - VISIBILITY
$$




USA.gov is the U.S. government's official web portal to all federal, state and local government web resources and services.